User: anonymous   Login
Location: Plum
(40.5000°N, 79.7500°W)
Time: 06:39:40
(UTC-04:00)
Language:

MOZ.5/SAFIR/RUBIN 5/SL-8 - Orbit

View from above orbital plane
View from above orbital plane
View from above satellite
View from above satellite

Ground track
Ground track

The orbit data is extracted from the following two-line orbital elements,

1 28898U 05043G   15088.80587701  .00000856  00000-0  18778-3 0  9998
2 28898 097.8422 267.6873 0019226 213.9983 145.9987 14.59826021501583
Epoch (UTC): 29 March 2015 19:20:27
Eccentricity: 0.0019226
inclination: 97.8422°
perigee height: 680 km
apogee height: 707 km
right ascension of ascending node: 267.6873°
argument of perigee: 213.9983°
revolutions per day: 14.59826021
mean anomaly at epoch: 145.9987°
orbit number at epoch: 50158

The dashed part of the orbit path shows where the satellite is in the earth's shadow,  

DLR